Starlink 11123

operational
NORAD ID: 59948 Int'l Des: 2024-107 Owner: SPXS Country: US Constellation: starlink
LEOCIRCULAR

关于 Starlink 11123

正在加载描述...

实时位置

正在加载3D地球...

即将过境

高度历史

Altitude vs Time

uPlot chart will show altitude changes over time

两行轨道根数

1 59948U 24107D 26093.39582062 -.00008944 00000-0 -69133-4 0 9997
2 59948 53.1574 129.6690 0001129 78.5530 281.5615 15.69678376106087
Epoch: Apr 3, 2026 • Age: 22 hours

当前状态

高度 365.1 km
速度 7.70 km/s
星下点 50.59°N, 62.63°W
发射日期 Jun 5, 2024
运行时间 1.8 years
类型 internet

技术详情

分类 Payload
质量 960.00 kg
干质量 910.00 kg
总质量 960.00 kg
长度 0.30 m
直径 4.10 m
跨度 29.00 m
形状 Box + pan
制造商 SPXS
平台类型 Starlink V2MD
阶段状态 In Orbit
所有者/国家 SPXS/US

大型星座

Loading constellations...